Temp: 17.7°C   Baro: 1015.4mb
  Wind: 12.1mph   Dir: NW (316°)
  Rain: 9.6mm (0.0mm/hr)
  Solar: 717W/m2  Hum: 64%
 
Bath Spa Weather Historical Data
Daily Summary for July 14, 2019 Units:  Metric    English   Both
Next Day »
Daily Weekly Monthly Yearly Custom
  High: Low: Average:
Temperature: 24.5 °C 13.8 °C 18.8 °C
Dew Point: 15.6 °C 10.3 °C 13 °C
Humidity: 82% 55% 70%
Wind Speed: 22.5km/h 0.0km/h 4.3km/h
Wind Gust: 24.1km/h - -
Wind direction- - East
Pressure: 1023.2 hPa 1021.6 hPa -
Precipitation: 0.0 mm    
Historical Graphs
 
 
Tabular Data for July 14, 2019
Time Temperature Dew Point Pressure Wind direction Wind Speed Wind Gust Humidity Rainfall Rate (Hourly) solar
00:04 16.4 °C 12.7 °C 1022.6 hPa NNE 7.9 km/h 17.7 km/h 79% 0.0 mm 0.00 W/m2
00:09 16.3 °C 12.7 °C 1022.9 hPa NNW 14.3 km/h 16.1 km/h 79% 0.0 mm 0.00 W/m2
00:14 16.2 °C 12.7 °C 1022.6 hPa NE 3.2 km/h 16.1 km/h 80% 0.0 mm 0.00 W/m2
00:19 16.1 °C 12.6 °C 1022.9 hPa NNE 6.4 km/h 16.1 km/h 80% 0.0 mm 0.00 W/m2
00:24 16.0 °C 12.6 °C 1022.9 hPa NE 3.2 km/h 11.3 km/h 80% 0.0 mm 0.00 W/m2
00:29 15.9 °C 12.5 °C 1022.9 hPa NNW 6.4 km/h 24.1 km/h 80% 0.0 mm 0.00 W/m2
00:34 15.8 °C 12.5 °C 1022.9 hPa North 3.2 km/h 17.7 km/h 81% 0.0 mm 0.00 W/m2
00:39 15.8 °C 12.5 °C 1022.9 hPa NNE 4.7 km/h 20.9 km/h 81% 0.0 mm 0.00 W/m2
00:44 15.7 °C 12.4 °C 1022.9 hPa NE 7.9 km/h 17.7 km/h 81% 0.0 mm 0.00 W/m2
00:49 15.7 °C 12.4 °C 1022.9 hPa NNE 17.7 km/h 19.3 km/h 81% 0.0 mm 0.00 W/m2
00:54 15.6 °C 12.4 °C 1022.9 hPa Calm   11.3 km/h 81% 0.0 mm 0.00 W/m2
00:59 15.5 °C 12.3 °C 1022.9 hPa North 7.9 km/h 11.3 km/h 81% 0.0 mm 0.00 W/m2
01:04 15.5 °C 12.3 °C 1023.2 hPa Calm   12.9 km/h 81% 0.0 mm 0.00 W/m2
01:09 15.4 °C 12.2 °C 1023.2 hPa Calm   9.7 km/h 81% 0.0 mm 0.00 W/m2
01:14 15.4 °C 12.2 °C 1023.2 hPa Calm   8.0 km/h 81% 0.0 mm 0.00 W/m2
01:19 15.4 °C 12.2 °C 1023.2 hPa Calm   1.6 km/h 81% 0.0 mm 0.00 W/m2
01:24 15.3 °C 12.1 °C 1023.2 hPa Calm   3.2 km/h 81% 0.0 mm 0.00 W/m2
01:29 15.3 °C 12.1 °C 1023.2 hPa Calm   1.6 km/h 81% 0.0 mm 0.00 W/m2
01:34 15.3 °C 12.1 °C 1023.2 hPa NE 1.4 km/h 6.4 km/h 81% 0.0 mm 0.00 W/m2
01:39 15.3 °C 12.1 °C 1023.2 hPa NE 1.4 km/h 1.6 km/h 81% 0.0 mm 0.00 W/m2
01:44 15.2 °C 12.0 °C 1023.2 hPa NE 7.9 km/h 11.3 km/h 81% 0.0 mm 0.00 W/m2
01:49 15.0 °C 11.8 °C 1023.2 hPa NNE 3.2 km/h 16.1 km/h 81% 0.0 mm 0.00 W/m2
01:54 15.0 °C 11.6 °C 1023.2 hPa Calm   6.4 km/h 80% 0.0 mm 0.00 W/m2
01:59 15.0 °C 11.6 °C 1023.2 hPa NE 1.4 km/h 11.3 km/h 80% 0.0 mm 0.00 W/m2
02:04 15.0 °C 11.6 °C 1023.2 hPa Calm   11.3 km/h 80% 0.0 mm 0.00 W/m2
02:09 14.9 °C 11.3 °C 1023.2 hPa NNE 4.7 km/h 12.9 km/h 79% 0.0 mm 0.00 W/m2
02:14 14.9 °C 11.1 °C 1023.2 hPa NNE 6.4 km/h 8.0 km/h 78% 0.0 mm 0.00 W/m2
02:19 14.9 °C 11.1 °C 1023.2 hPa NE 6.4 km/h 9.7 km/h 78% 0.0 mm 0.00 W/m2
02:24 14.9 °C 10.9 °C 1023.2 hPa NNE 1.4 km/h 6.4 km/h 77% 0.0 mm 0.00 W/m2
02:29 14.9 °C 10.9 °C 1023.2 hPa ENE 4.7 km/h 8.0 km/h 77% 0.0 mm 0.00 W/m2
02:34 14.9 °C 10.9 °C 1023.2 hPa NE 1.4 km/h 16.1 km/h 77% 0.0 mm 0.00 W/m2
02:39 14.9 °C 10.7 °C 1023.2 hPa ESE 3.2 km/h 8.0 km/h 76% 0.0 mm 0.00 W/m2
02:44 14.9 °C 10.7 °C 1023.2 hPa ENE 7.9 km/h 8.0 km/h 76% 0.0 mm 0.00 W/m2
02:49 14.9 °C 10.7 °C 1022.9 hPa Calm   4.8 km/h 76% 0.0 mm 0.00 W/m2
02:54 14.8 °C 10.6 °C 1022.9 hPa ENE 3.2 km/h 11.3 km/h 76% 0.0 mm 0.00 W/m2
02:59 14.9 °C 10.7 °C 1022.9 hPa Calm   4.8 km/h 76% 0.0 mm 0.00 W/m2
03:04 14.8 °C 10.6 °C 1022.9 hPa NNE 9.7 km/h 9.7 km/h 76% 0.0 mm 0.00 W/m2
03:09 14.8 °C 10.6 °C 1022.9 hPa NE 3.2 km/h 6.4 km/h 76% 0.0 mm 0.00 W/m2
03:14 14.8 °C 10.6 °C 1022.9 hPa Calm   6.4 km/h 76% 0.0 mm 0.00 W/m2
03:19 14.8 °C 10.6 °C 1022.9 hPa NE 4.7 km/h 4.8 km/h 76% 0.0 mm 0.00 W/m2
03:24 14.7 °C 10.5 °C 1022.9 hPa NE 1.4 km/h 3.2 km/h 76% 0.0 mm 0.00 W/m2
03:29 14.7 °C 10.5 °C 1022.6 hPa Calm     76% 0.0 mm 0.00 W/m2
03:34 14.7 °C 10.5 °C 1022.6 hPa ENE 7.9 km/h 12.9 km/h 76% 0.0 mm 0.00 W/m2
03:39 14.7 °C 10.3 °C 1022.6 hPa NE 3.2 km/h 4.8 km/h 75% 0.0 mm 0.00 W/m2
03:44 14.8 °C 10.4 °C 1022.6 hPa NNE 7.9 km/h 12.9 km/h 75% 0.0 mm 0.00 W/m2
03:49 14.8 °C 10.4 °C 1022.6 hPa Calm   3.2 km/h 75% 0.0 mm 0.00 W/m2
03:54 14.8 °C 10.4 °C 1022.6 hPa NE 3.2 km/h 8.0 km/h 75% 0.0 mm 0.00 W/m2
03:59 14.8 °C 10.4 °C 1022.6 hPa Calm   4.8 km/h 75% 0.0 mm 0.00 W/m2
04:04 14.8 °C 10.4 °C 1022.6 hPa NE 1.4 km/h 1.6 km/h 75% 0.0 mm 0.00 W/m2
04:09 14.8 °C 10.4 °C 1022.6 hPa WNW 1.4 km/h 8.0 km/h 75% 0.0 mm 0.00 W/m2
04:14 14.7 °C 10.5 °C 1022.6 hPa WNW 4.7 km/h 6.4 km/h 76% 0.0 mm 0.00 W/m2
04:19 14.5 °C 10.5 °C 1022.6 hPa WNW 3.2 km/h 6.4 km/h 77% 0.0 mm 0.00 W/m2
04:24 14.4 °C 10.6 °C 1022.6 hPa WNW 1.4 km/h 3.2 km/h 78% 0.0 mm 0.00 W/m2
04:29 14.3 °C 10.7 °C 1022.6 hPa Calm   3.2 km/h 79% 0.0 mm 0.00 W/m2
04:34 14.3 °C 10.7 °C 1022.2 hPa Calm     79% 0.0 mm 0.00 W/m2
04:39 14.3 °C 10.7 °C 1022.2 hPa Calm     79% 0.0 mm 0.00 W/m2
04:44 14.2 °C 10.8 °C 1022.2 hPa Calm     80% 0.0 mm 0.00 W/m2
04:49 14.2 °C 10.8 °C 1022.6 hPa Calm   3.2 km/h 80% 0.0 mm 0.00 W/m2
04:54 14.0 °C 10.6 °C 1022.6 hPa WNW 3.2 km/h 4.8 km/h 80% 0.0 mm 0.00 W/m2
04:59 14.0 °C 10.6 °C 1022.6 hPa WNW 3.2 km/h 3.2 km/h 80% 0.0 mm 0.00 W/m2
05:04 14.0 °C 10.6 °C 1022.6 hPa Calm     80% 0.0 mm 0.00 W/m2
05:09 14.0 °C 10.6 °C 1022.6 hPa Calm     80% 0.0 mm 0.00 W/m2
05:14 14.0 °C 10.8 °C 1022.6 hPa Calm     81% 0.0 mm 0.00 W/m2
05:19 13.9 °C 10.7 °C 1022.6 hPa Calm     81% 0.0 mm 5.00 W/m2
05:24 13.9 °C 10.7 °C 1022.6 hPa Calm     81% 0.0 mm 7.00 W/m2
05:29 13.9 °C 10.7 °C 1022.6 hPa WNW 1.4 km/h 4.8 km/h 81% 0.0 mm 9.00 W/m2
05:34 13.8 °C 10.6 °C 1022.6 hPa Calm     81% 0.0 mm 12.00 W/m2
05:39 13.9 °C 10.7 °C 1022.6 hPa WNW 3.2 km/h 3.2 km/h 81% 0.0 mm 14.00 W/m2
05:44 13.8 °C 10.6 °C 1022.6 hPa Calm   1.6 km/h 81% 0.0 mm 19.00 W/m2
05:49 13.8 °C 10.6 °C 1022.6 hPa Calm     81% 0.0 mm 19.00 W/m2
05:54 13.8 °C 10.6 °C 1022.6 hPa SE 3.2 km/h 3.2 km/h 81% 0.0 mm 19.00 W/m2
05:59 13.9 °C 10.7 °C 1022.6 hPa SE 4.7 km/h 4.8 km/h 81% 0.0 mm 23.00 W/m2
06:04 13.9 °C 10.7 °C 1022.6 hPa Calm   3.2 km/h 81% 0.0 mm 23.00 W/m2
06:09 14.0 °C 10.8 °C 1022.6 hPa Calm     81% 0.0 mm 25.00 W/m2
06:14 14.0 °C 10.8 °C 1022.6 hPa Calm     81% 0.0 mm 26.00 W/m2
06:19 14.1 °C 10.9 °C 1022.6 hPa Calm     81% 0.0 mm 26.00 W/m2
06:24 14.1 °C 10.9 °C 1022.6 hPa Calm     81% 0.0 mm 30.00 W/m2
06:29 14.2 °C 11.0 °C 1022.6 hPa Calm     81% 0.0 mm 32.00 W/m2
06:34 14.1 °C 10.7 °C 1022.6 hPa Calm   1.6 km/h 80% 0.0 mm 37.00 W/m2
06:39 14.2 °C 10.8 °C 1022.6 hPa Calm   3.2 km/h 80% 0.0 mm 40.00 W/m2
06:44 14.2 °C 10.8 °C 1022.6 hPa SE 1.4 km/h 4.8 km/h 80% 0.0 mm 42.00 W/m2
06:49 14.2 °C 11.0 °C 1022.6 hPa Calm   1.6 km/h 81% 0.0 mm 46.00 W/m2
06:54 14.2 °C 11.0 °C 1022.6 hPa Calm   1.6 km/h 81% 0.0 mm 51.00 W/m2
06:59 14.1 °C 10.9 °C 1022.9 hPa SE 1.4 km/h 3.2 km/h 81% 0.0 mm 49.00 W/m2
07:04 14.0 °C 10.8 °C 1022.9 hPa Calm   1.6 km/h 81% 0.0 mm 53.00 W/m2
07:09 14.0 °C 10.8 °C 1022.9 hPa Calm   3.2 km/h 81% 0.0 mm 53.00 W/m2
07:14 14.0 °C 10.8 °C 1022.9 hPa Calm     81% 0.0 mm 47.00 W/m2
07:19 14.1 °C 10.9 °C 1022.9 hPa Calm   1.6 km/h 81% 0.0 mm 49.00 W/m2
07:24 14.1 °C 10.9 °C 1022.6 hPa Calm     81% 0.0 mm 53.00 W/m2
07:29 14.1 °C 10.9 °C 1022.6 hPa SE 3.2 km/h 3.2 km/h 81% 0.0 mm 58.00 W/m2
07:34 14.2 °C 11.2 °C 1022.9 hPa ESE 3.2 km/h 8.0 km/h 82% 0.0 mm 65.00 W/m2
07:39 14.2 °C 11.0 °C 1022.6 hPa Calm   1.6 km/h 81% 0.0 mm 153.00 W/m2
07:44 14.3 °C 11.3 °C 1022.9 hPa Calm   1.6 km/h 82% 0.0 mm 216.00 W/m2
07:49 14.5 °C 11.5 °C 1022.9 hPa Calm   4.8 km/h 82% 0.0 mm 243.00 W/m2
07:54 14.7 °C 11.5 °C 1022.9 hPa ESE 4.7 km/h 6.4 km/h 81% 0.0 mm 253.00 W/m2
07:59 14.8 °C 11.6 °C 1022.9 hPa Calm   6.4 km/h 81% 0.0 mm 322.00 W/m2
08:04 15.0 °C 11.8 °C 1022.9 hPa ESE 4.7 km/h 8.0 km/h 81% 0.0 mm 346.00 W/m2
08:09 15.1 °C 11.7 °C 1022.9 hPa SSE 6.4 km/h 6.4 km/h 80% 0.0 mm 325.00 W/m2
08:14 15.3 °C 11.9 °C 1022.9 hPa Calm   1.6 km/h 80% 0.0 mm 290.00 W/m2
08:19 15.4 °C 11.8 °C 1022.9 hPa ESE 4.7 km/h 9.7 km/h 79% 0.0 mm 251.00 W/m2
08:24 15.5 °C 11.9 °C 1022.9 hPa ESE 1.4 km/h 6.4 km/h 79% 0.0 mm 336.00 W/m2
08:29 15.6 °C 12.0 °C 1022.9 hPa ESE 3.2 km/h 8.0 km/h 79% 0.0 mm 353.00 W/m2
08:34 15.6 °C 12.0 °C 1022.9 hPa ESE 3.2 km/h 9.7 km/h 79% 0.0 mm 360.00 W/m2
08:39 15.6 °C 12.0 °C 1022.9 hPa SE 1.4 km/h 6.4 km/h 79% 0.0 mm 378.00 W/m2
08:44 15.8 °C 12.2 °C 1022.9 hPa SE 11.3 km/h 12.9 km/h 79% 0.0 mm 394.00 W/m2
08:49 16.5 °C 12.7 °C 1022.9 hPa SE 9.7 km/h 9.7 km/h 78% 0.0 mm 403.00 W/m2
08:54 16.9 °C 12.8 °C 1022.9 hPa SE 6.4 km/h 6.4 km/h 77% 0.0 mm 323.00 W/m2
08:59 16.7 °C 12.4 °C 1022.9 hPa SE 6.4 km/h 12.9 km/h 76% 0.0 mm 315.00 W/m2
09:04 17.0 °C 13.1 °C 1022.9 hPa ESE 9.7 km/h 11.3 km/h 78% 0.0 mm 257.00 W/m2
09:09 17.2 °C 12.9 °C 1022.9 hPa NNE 6.4 km/h 9.7 km/h 76% 0.0 mm 466.00 W/m2
09:14 17.6 °C 13.1 °C 1022.9 hPa East 3.2 km/h 12.9 km/h 75% 0.0 mm 471.00 W/m2
09:19 17.9 °C 13.2 °C 1022.9 hPa ESE 6.4 km/h 9.7 km/h 74% 0.0 mm 485.00 W/m2
09:24 17.9 °C 13.2 °C 1022.9 hPa ESE 6.4 km/h 11.3 km/h 74% 0.0 mm 506.00 W/m2
09:29 17.9 °C 13.2 °C 1022.9 hPa SE 4.7 km/h 16.1 km/h 74% 0.0 mm 515.00 W/m2
09:34 17.7 °C 13.2 °C 1022.9 hPa SE 9.7 km/h 12.9 km/h 75% 0.0 mm 531.00 W/m2
09:39 17.9 °C 13.2 °C 1022.9 hPa SE 4.7 km/h 16.1 km/h 74% 0.0 mm 540.00 W/m2
09:44 17.8 °C 13.3 °C 1022.9 hPa SSE 3.2 km/h 11.3 km/h 75% 0.0 mm 554.00 W/m2
09:49 18.3 °C 13.8 °C 1022.9 hPa ESE 6.4 km/h 14.5 km/h 75% 0.0 mm 587.00 W/m2
09:54 18.7 °C 13.8 °C 1022.9 hPa South 9.7 km/h 14.5 km/h 73% 0.0 mm 592.00 W/m2
09:59 18.4 °C 13.5 °C 1022.9 hPa SE 1.4 km/h 9.7 km/h 73% 0.0 mm 642.00 W/m2
10:04 18.6 °C 13.5 °C 1022.9 hPa SE 7.9 km/h 12.9 km/h 72% 0.0 mm 645.00 W/m2
10:09 18.7 °C 13.5 °C 1022.9 hPa Calm   12.9 km/h 72% 0.0 mm 635.00 W/m2
10:14 18.7 °C 13.8 °C 1022.9 hPa NNE 9.7 km/h 9.7 km/h 73% 0.0 mm 633.00 W/m2
10:19 19.2 °C 13.6 °C 1022.9 hPa ESE 13.0 km/h 12.9 km/h 70% 0.0 mm 635.00 W/m2
10:24 19.3 °C 13.7 °C 1022.9 hPa East 1.4 km/h 14.5 km/h 70% 0.0 mm 638.00 W/m2
10:29 19.4 °C 13.8 °C 1022.9 hPa ESE 7.9 km/h 14.5 km/h 70% 0.0 mm 650.00 W/m2
10:34 19.6 °C 13.5 °C 1022.9 hPa ESE 7.9 km/h 16.1 km/h 68% 0.0 mm 661.00 W/m2
10:39 19.1 °C 13.5 °C 1022.9 hPa SE 6.4 km/h 11.3 km/h 70% 0.0 mm 694.00 W/m2
10:44 19.8 °C 14.2 °C 1022.9 hPa Calm   8.0 km/h 70% 0.0 mm 701.00 W/m2
10:49 20.7 °C 14.4 °C 1022.9 hPa East 11.1 km/h 11.3 km/h 67% 0.0 mm 700.00 W/m2
10:54 20.7 °C 13.6 °C 1022.9 hPa SSE 3.2 km/h 8.0 km/h 64% 0.0 mm 729.00 W/m2
10:59 20.9 °C 14.1 °C 1022.9 hPa ESE 6.4 km/h 12.9 km/h 65% 0.0 mm 731.00 W/m2
11:04 21.3 °C 14.2 °C 1022.9 hPa ESE 7.9 km/h 11.3 km/h 64% 0.0 mm 809.00 W/m2
11:09 21.4 °C 14.5 °C 1022.9 hPa NNE 4.7 km/h 11.3 km/h 65% 0.0 mm 833.00 W/m2
11:14 20.9 °C 15.0 °C 1022.9 hPa SSE 1.4 km/h 14.5 km/h 69% 0.0 mm 853.00 W/m2
11:19 21.2 °C 14.8 °C 1022.9 hPa South 7.9 km/h 16.1 km/h 67% 0.0 mm 912.00 W/m2
11:24 21.1 °C 14.7 °C 1022.9 hPa SSE 3.2 km/h 12.9 km/h 67% 0.0 mm 916.00 W/m2
11:29 21.2 °C 14.8 °C 1022.9 hPa NE 3.2 km/h 14.5 km/h 67% 0.0 mm 313.00 W/m2
11:34 21.4 °C 15.2 °C 1022.9 hPa East 3.2 km/h 11.3 km/h 68% 0.0 mm 951.00 W/m2
11:39 21.2 °C 15.1 °C 1022.9 hPa SE 3.2 km/h 14.5 km/h 68% 0.0 mm 838.00 W/m2
11:44 21.8 °C 15.4 °C 1022.9 hPa NE 4.7 km/h 11.3 km/h 67% 0.0 mm 858.00 W/m2
11:49 22.0 °C 15.1 °C 1022.9 hPa SE 3.2 km/h 9.7 km/h 65% 0.0 mm 283.00 W/m2
11:54 21.4 °C 15.0 °C 1022.9 hPa ESE 3.2 km/h 17.7 km/h 67% 0.0 mm 977.00 W/m2
11:59 21.4 °C 15.0 °C 1022.9 hPa SSE 4.7 km/h 11.3 km/h 67% 0.0 mm 954.00 W/m2
12:04 22.3 °C 15.6 °C 1022.9 hPa East 11.1 km/h 12.9 km/h 66% 0.0 mm 1028.00 W/m2
12:09 22.3 °C 15.2 °C 1022.9 hPa SE 7.9 km/h 9.7 km/h 64% 0.0 mm 376.00 W/m2
12:14 21.9 °C 15.3 °C 1022.9 hPa East 1.4 km/h 6.4 km/h 66% 0.0 mm 940.00 W/m2
12:19 22.7 °C 15.5 °C 1022.9 hPa East 3.2 km/h 12.9 km/h 64% 0.0 mm 1004.00 W/m2
12:24 22.2 °C 15.1 °C 1022.9 hPa East 17.7 km/h 17.7 km/h 64% 0.0 mm 970.00 W/m2
12:29 21.9 °C 15.0 °C 1022.9 hPa East 7.9 km/h 16.1 km/h 65% 0.0 mm 334.00 W/m2
12:34 21.5 °C 14.9 °C 1022.9 hPa NE 3.2 km/h 11.3 km/h 66% 0.0 mm 406.00 W/m2
12:39 20.9 °C 14.5 °C 1022.6 hPa NE 1.4 km/h 17.7 km/h 67% 0.0 mm 373.00 W/m2
12:44 20.9 °C 14.5 °C 1022.6 hPa ENE 11.1 km/h 16.1 km/h 67% 0.0 mm 506.00 W/m2
12:49 20.8 °C 14.7 °C 1022.9 hPa ENE 14.3 km/h 19.3 km/h 68% 0.0 mm 281.00 W/m2
12:54 21.3 °C 15.2 °C 1022.6 hPa East 13.0 km/h 12.9 km/h 68% 0.0 mm 241.00 W/m2
12:59 21.2 °C 14.6 °C 1022.9 hPa NNE 6.4 km/h 17.7 km/h 66% 0.0 mm 260.00 W/m2
13:04 21.3 °C 14.9 °C 1022.9 hPa NE 7.9 km/h 14.5 km/h 67% 0.0 mm 969.00 W/m2
13:09 21.6 °C 14.7 °C 1022.9 hPa East 9.7 km/h 12.9 km/h 65% 0.0 mm 304.00 W/m2
13:14 22.0 °C 14.6 °C 1022.9 hPa ENE 7.9 km/h 11.3 km/h 63% 0.0 mm 341.00 W/m2
13:19 22.0 °C 14.4 °C 1022.6 hPa ENE 1.4 km/h 9.7 km/h 62% 0.0 mm 1002.00 W/m2
13:24 22.2 °C 14.3 °C 1022.6 hPa East 4.7 km/h 8.0 km/h 61% 0.0 mm 336.00 W/m2
13:29 21.8 °C 14.2 °C 1022.6 hPa SSE 4.7 km/h 14.5 km/h 62% 0.0 mm 1002.00 W/m2
13:34 22.4 °C 14.8 °C 1022.6 hPa Calm   11.3 km/h 62% 0.0 mm 946.00 W/m2
13:39 22.9 °C 15.0 °C 1022.6 hPa NE 3.2 km/h 9.7 km/h 61% 0.0 mm 1042.00 W/m2
13:44 23.0 °C 14.8 °C 1022.6 hPa NE 4.7 km/h 8.0 km/h 60% 0.0 mm 350.00 W/m2
13:49 23.4 °C 14.9 °C 1022.6 hPa NE 9.7 km/h 17.7 km/h 59% 0.0 mm 995.00 W/m2
13:54 22.9 °C 14.5 °C 1022.6 hPa Calm   12.9 km/h 59% 0.0 mm 250.00 W/m2
13:59 22.8 °C 14.4 °C 1022.6 hPa ESE 4.7 km/h 8.0 km/h 59% 0.0 mm 267.00 W/m2
14:04 23.3 °C 14.8 °C 1022.6 hPa Calm   8.0 km/h 59% 0.0 mm 817.00 W/m2
14:09 23.6 °C 14.6 °C 1022.6 hPa NNE 6.4 km/h 11.3 km/h 57% 0.0 mm 963.00 W/m2
14:14 23.6 °C 14.3 °C 1022.6 hPa NNE 16.1 km/h 17.7 km/h 56% 0.0 mm 926.00 W/m2
14:19 22.8 °C 14.4 °C 1022.2 hPa NE 13.0 km/h 17.7 km/h 59% 0.0 mm 900.00 W/m2
14:24 23.1 °C 14.9 °C 1022.2 hPa NE 3.2 km/h 14.5 km/h 60% 0.0 mm 881.00 W/m2
14:29 23.6 °C 15.1 °C 1022.2 hPa ESE 17.7 km/h 17.7 km/h 59% 0.0 mm 888.00 W/m2
14:34 23.5 °C 14.8 °C 1022.2 hPa ENE 13.0 km/h 19.3 km/h 58% 0.0 mm 937.00 W/m2
14:39 23.7 °C 14.9 °C 1022.2 hPa NNE 3.2 km/h 11.3 km/h 58% 0.0 mm 914.00 W/m2
14:44 23.5 °C 15.0 °C 1022.2 hPa NE 11.1 km/h 19.3 km/h 59% 0.0 mm 888.00 W/m2
14:49 23.9 °C 14.9 °C 1022.2 hPa NNE 11.1 km/h 11.3 km/h 57% 0.0 mm 237.00 W/m2
14:54 23.0 °C 14.8 °C 1022.2 hPa East 4.7 km/h 9.7 km/h 60% 0.0 mm 830.00 W/m2
14:59 23.8 °C 15.3 °C 1022.2 hPa NE 14.3 km/h 14.5 km/h 59% 0.0 mm 867.00 W/m2
15:04 24.0 °C 15.2 °C 1022.2 hPa Calm   8.0 km/h 58% 0.0 mm 257.00 W/m2
15:09 23.8 °C 15.0 °C 1022.2 hPa NNE 13.0 km/h 14.5 km/h 58% 0.0 mm 847.00 W/m2
15:14 23.5 °C 15.0 °C 1022.2 hPa ENE 13.0 km/h 12.9 km/h 59% 0.0 mm 830.00 W/m2
15:19 22.9 °C 14.7 °C 1022.2 hPa Calm   24.1 km/h 60% 0.0 mm 854.00 W/m2
15:24 23.4 °C 14.9 °C 1022.2 hPa East 7.9 km/h 12.9 km/h 59% 0.0 mm 958.00 W/m2
15:29 24.0 °C 15.2 °C 1022.2 hPa Calm   12.9 km/h 58% 0.0 mm 911.00 W/m2
15:34 23.9 °C 14.9 °C 1022.2 hPa NE 13.0 km/h 16.1 km/h 57% 0.0 mm 278.00 W/m2
15:39 23.1 °C 14.9 °C 1022.2 hPa ENE 14.3 km/h 16.1 km/h 60% 0.0 mm 868.00 W/m2
15:44 23.2 °C 15.3 °C 1022.2 hPa ENE 11.1 km/h 11.3 km/h 61% 0.0 mm 578.00 W/m2
15:49 23.9 °C 15.4 °C 1022.2 hPa ENE 7.9 km/h 16.1 km/h 59% 0.0 mm 784.00 W/m2
15:54 23.7 °C 15.2 °C 1022.2 hPa North 4.7 km/h 16.1 km/h 59% 0.0 mm 733.00 W/m2
15:59 23.7 °C 15.5 °C 1022.2 hPa NE 22.5 km/h 22.5 km/h 60% 0.0 mm 751.00 W/m2
16:04 24.2 °C 15.1 °C 1022.2 hPa NNE 4.7 km/h 11.3 km/h 57% 0.0 mm 729.00 W/m2
16:09 24.5 °C 15.4 °C 1022.2 hPa SE 14.3 km/h 19.3 km/h 57% 0.0 mm 747.00 W/m2
16:14 24.1 °C 14.8 °C 1022.2 hPa East 3.2 km/h 19.3 km/h 56% 0.0 mm 190.00 W/m2
16:19 23.6 °C 14.9 °C 1022.2 hPa Calm   11.3 km/h 58% 0.0 mm 729.00 W/m2
16:24 23.5 °C 15.0 °C 1022.2 hPa ENE 6.4 km/h 12.9 km/h 59% 0.0 mm 390.00 W/m2
16:29 23.7 °C 14.9 °C 1022.2 hPa NE 14.3 km/h 14.5 km/h 58% 0.0 mm 253.00 W/m2
16:34 22.6 °C 14.4 °C 1022.6 hPa NNE 6.4 km/h 17.7 km/h 60% 0.0 mm 192.00 W/m2
16:39 22.1 °C 14.5 °C 1022.2 hPa ENE 4.7 km/h 19.3 km/h 62% 0.0 mm 687.00 W/m2
16:44 22.4 °C 14.5 °C 1022.2 hPa East 13.0 km/h 14.5 km/h 61% 0.0 mm 659.00 W/m2
16:49 22.7 °C 14.8 °C 1022.2 hPa East 3.2 km/h 11.3 km/h 61% 0.0 mm 624.00 W/m2
16:54 22.8 °C 14.4 °C 1022.2 hPa NE 11.1 km/h 22.5 km/h 59% 0.0 mm 617.00 W/m2
16:59 22.8 °C 14.6 °C 1022.2 hPa ESE 11.1 km/h 11.3 km/h 60% 0.0 mm 598.00 W/m2
17:04 23.0 °C 14.6 °C 1022.2 hPa SSE 6.4 km/h 11.3 km/h 59% 0.0 mm 582.00 W/m2
17:09 22.7 °C 14.5 °C 1022.2 hPa ENE 3.2 km/h 22.5 km/h 60% 0.0 mm 594.00 W/m2
17:14 22.9 °C 14.5 °C 1022.2 hPa ENE 1.4 km/h 20.9 km/h 59% 0.0 mm 577.00 W/m2
17:19 22.8 °C 14.4 °C 1022.2 hPa NE 6.4 km/h 16.1 km/h 59% 0.0 mm 571.00 W/m2
17:24 22.7 °C 14.0 °C 1022.2 hPa NE 7.9 km/h 17.7 km/h 58% 0.0 mm 575.00 W/m2
17:29 23.0 °C 14.3 °C 1022.2 hPa East 7.9 km/h 17.7 km/h 58% 0.0 mm 584.00 W/m2
17:34 23.0 °C 14.3 °C 1022.2 hPa ESE 11.1 km/h 14.5 km/h 58% 0.0 mm 575.00 W/m2
17:39 23.0 °C 14.3 °C 1022.2 hPa NE 13.0 km/h 12.9 km/h 58% 0.0 mm 313.00 W/m2
17:44 22.8 °C 13.8 °C 1022.2 hPa East 6.4 km/h 14.5 km/h 57% 0.0 mm 448.00 W/m2
17:49 22.5 °C 13.6 °C 1022.2 hPa ESE 1.4 km/h 14.5 km/h 57% 0.0 mm 476.00 W/m2
17:54 22.7 °C 13.7 °C 1022.2 hPa ENE 7.9 km/h 8.0 km/h 57% 0.0 mm 466.00 W/m2
17:59 22.9 °C 13.7 °C 1022.2 hPa NE 3.2 km/h 20.9 km/h 56% 0.0 mm 448.00 W/m2
18:04 22.8 °C 13.8 °C 1022.2 hPa SE 4.7 km/h 11.3 km/h 57% 0.0 mm 434.00 W/m2
18:09 23.2 °C 13.9 °C 1022.2 hPa NE 11.1 km/h 14.5 km/h 56% 0.0 mm 420.00 W/m2
18:14 23.0 °C 14.0 °C 1022.2 hPa East 4.7 km/h 17.7 km/h 57% 0.0 mm 408.00 W/m2
18:19 23.1 °C 13.8 °C 1022.2 hPa East 1.4 km/h 11.3 km/h 56% 0.0 mm 385.00 W/m2
18:24 23.2 °C 13.7 °C 1022.2 hPa ESE 3.2 km/h 9.7 km/h 55% 0.0 mm 373.00 W/m2
18:29 23.1 °C 13.8 °C 1022.2 hPa East 9.7 km/h 11.3 km/h 56% 0.0 mm 360.00 W/m2
18:34 23.3 °C 13.8 °C 1022.2 hPa Calm   11.3 km/h 55% 0.0 mm 346.00 W/m2
18:39 23.2 °C 13.7 °C 1022.2 hPa ESE 3.2 km/h 4.8 km/h 55% 0.0 mm 336.00 W/m2
18:44 23.2 °C 13.9 °C 1022.2 hPa NNE 7.9 km/h 9.7 km/h 56% 0.0 mm 316.00 W/m2
18:49 23.0 °C 14.0 °C 1022.2 hPa ENE 1.4 km/h 8.0 km/h 57% 0.0 mm 306.00 W/m2
18:54 23.3 °C 13.8 °C 1022.2 hPa ENE 11.1 km/h 14.5 km/h 55% 0.0 mm 292.00 W/m2
18:59 23.4 °C 14.1 °C 1021.9 hPa East 1.4 km/h 9.7 km/h 56% 0.0 mm 281.00 W/m2
19:04 23.2 °C 13.9 °C 1021.9 hPa SE 1.4 km/h 11.3 km/h 56% 0.0 mm 267.00 W/m2
19:09 22.9 °C 13.9 °C 1021.9 hPa SSE 4.7 km/h 12.9 km/h 57% 0.0 mm 251.00 W/m2
19:14 22.5 °C 14.1 °C 1021.9 hPa East 6.4 km/h 8.0 km/h 59% 0.0 mm 237.00 W/m2
19:19 22.4 °C 14.3 °C 1021.9 hPa ESE 3.2 km/h 11.3 km/h 60% 0.0 mm 227.00 W/m2
19:24 22.7 °C 14.3 °C 1021.9 hPa East 3.2 km/h 9.7 km/h 59% 0.0 mm 213.00 W/m2
19:29 22.6 °C 13.9 °C 1021.9 hPa ESE 3.2 km/h 8.0 km/h 58% 0.0 mm 197.00 W/m2
19:34 22.7 °C 13.7 °C 1021.9 hPa ESE 3.2 km/h 4.8 km/h 57% 0.0 mm 179.00 W/m2
19:39 22.7 °C 13.7 °C 1021.9 hPa NE 4.7 km/h 6.4 km/h 57% 0.0 mm 165.00 W/m2
19:44 22.4 °C 13.5 °C 1021.9 hPa ENE 6.4 km/h 14.5 km/h 57% 0.0 mm 151.00 W/m2
19:49 22.4 °C 13.7 °C 1021.9 hPa NE 3.2 km/h 11.3 km/h 58% 0.0 mm 137.00 W/m2
19:54 22.4 °C 14.0 °C 1021.9 hPa Calm   3.2 km/h 59% 0.0 mm 123.00 W/m2
19:59 22.3 °C 13.9 °C 1021.9 hPa NE 4.7 km/h 11.3 km/h 59% 0.0 mm 111.00 W/m2
20:04 22.2 °C 14.1 °C 1021.6 hPa NE 1.4 km/h 4.8 km/h 60% 0.0 mm 98.00 W/m2
20:09 22.0 °C 13.9 °C 1021.9 hPa NE 4.7 km/h 8.0 km/h 60% 0.0 mm 86.00 W/m2
20:14 22.0 °C 14.1 °C 1021.9 hPa East 7.9 km/h 11.3 km/h 61% 0.0 mm 74.00 W/m2
20:19 22.0 °C 14.1 °C 1021.9 hPa ENE 1.4 km/h 4.8 km/h 61% 0.0 mm 62.00 W/m2
20:24 22.2 °C 14.3 °C 1021.9 hPa Calm   6.4 km/h 61% 0.0 mm 51.00 W/m2
20:29 22.1 °C 14.2 °C 1021.9 hPa NNE 1.4 km/h 8.0 km/h 61% 0.0 mm 42.00 W/m2
20:34 21.7 °C 14.1 °C 1021.9 hPa ENE 3.2 km/h 12.9 km/h 62% 0.0 mm 33.00 W/m2
20:39 21.4 °C 14.1 °C 1021.9 hPa NNE 4.7 km/h 12.9 km/h 63% 0.0 mm 25.00 W/m2
20:44 21.2 °C 14.1 °C 1021.9 hPa NE 6.4 km/h 11.3 km/h 64% 0.0 mm 21.00 W/m2
20:49 20.8 °C 14.0 °C 1021.9 hPa NE 6.4 km/h 19.3 km/h 65% 0.0 mm 18.00 W/m2
20:54 20.6 °C 14.0 °C 1022.2 hPa NE 1.4 km/h 4.8 km/h 66% 0.0 mm 16.00 W/m2
20:59 20.4 °C 14.1 °C 1022.2 hPa East 4.7 km/h 9.7 km/h 67% 0.0 mm 12.00 W/m2
21:04 20.2 °C 13.9 °C 1022.2 hPa ESE 4.7 km/h 16.1 km/h 67% 0.0 mm 11.00 W/m2
21:09 19.8 °C 13.5 °C 1022.2 hPa SE 3.2 km/h 11.3 km/h 67% 0.0 mm 9.00 W/m2
21:14 19.6 °C 13.5 °C 1022.2 hPa ESE 6.4 km/h 6.4 km/h 68% 0.0 mm 5.00 W/m2
21:19 19.5 °C 13.4 °C 1022.2 hPa East 1.4 km/h 8.0 km/h 68% 0.0 mm 5.00 W/m2
21:24 19.4 °C 13.6 °C 1022.2 hPa East 4.7 km/h 8.0 km/h 69% 0.0 mm 0.00 W/m2
21:29 19.3 °C 13.5 °C 1022.2 hPa Calm     69% 0.0 mm 0.00 W/m2
21:34 19.2 °C 13.4 °C 1022.2 hPa East 1.4 km/h 4.8 km/h 69% 0.0 mm 0.00 W/m2
21:39 19.1 °C 13.5 °C 1022.2 hPa ENE 1.4 km/h 1.6 km/h 70% 0.0 mm 0.00 W/m2
21:44 19.0 °C 13.4 °C 1022.2 hPa Calm   8.0 km/h 70% 0.0 mm 0.00 W/m2
21:49 18.9 °C 13.3 °C 1022.6 hPa Calm   8.0 km/h 70% 0.0 mm 0.00 W/m2
21:54 18.8 °C 13.2 °C 1022.6 hPa ENE 3.2 km/h 4.8 km/h 70% 0.0 mm 0.00 W/m2
21:59 18.5 °C 12.9 °C 1022.6 hPa Calm   8.0 km/h 70% 0.0 mm 0.00 W/m2
22:04 18.4 °C 13.0 °C 1022.6 hPa Calm   6.4 km/h 71% 0.0 mm 0.00 W/m2
22:09 18.3 °C 13.0 °C 1022.6 hPa Calm   8.0 km/h 71% 0.0 mm 0.00 W/m2
22:14 18.2 °C 12.9 °C 1022.6 hPa Calm   4.8 km/h 71% 0.0 mm 0.00 W/m2
22:19 18.1 °C 12.8 °C 1022.6 hPa Calm     71% 0.0 mm 0.00 W/m2
22:24 18.0 °C 12.9 °C 1022.6 hPa ESE 1.4 km/h 3.2 km/h 72% 0.0 mm 0.00 W/m2
22:29 17.9 °C 12.8 °C 1022.6 hPa ENE 4.7 km/h 4.8 km/h 72% 0.0 mm 0.00 W/m2
22:34 17.8 °C 12.7 °C 1022.6 hPa East 1.4 km/h 3.2 km/h 72% 0.0 mm 0.00 W/m2
22:39 17.7 °C 12.6 °C 1022.6 hPa Calm   4.8 km/h 72% 0.0 mm 0.00 W/m2
22:44 17.6 °C 12.5 °C 1022.6 hPa ENE 3.2 km/h 3.2 km/h 72% 0.0 mm 0.00 W/m2
22:49 17.4 °C 12.5 °C 1022.9 hPa Calm   6.4 km/h 73% 0.0 mm 0.00 W/m2
22:54 17.3 °C 12.4 °C 1022.9 hPa NE 3.2 km/h 11.3 km/h 73% 0.0 mm 0.00 W/m2
22:59 17.3 °C 12.4 °C 1022.9 hPa Calm   4.8 km/h 73% 0.0 mm 0.00 W/m2
23:04 17.1 °C 12.2 °C 1022.6 hPa Calm   3.2 km/h 73% 0.0 mm 0.00 W/m2
23:09 17.1 °C 12.2 °C 1022.9 hPa ENE 3.2 km/h 6.4 km/h 73% 0.0 mm 0.00 W/m2
23:14 17.0 °C 12.1 °C 1022.9 hPa Calm   1.6 km/h 73% 0.0 mm 0.00 W/m2
23:19 17.0 °C 12.3 °C 1022.9 hPa Calm     74% 0.0 mm 0.00 W/m2
23:24 16.9 °C 12.2 °C 1022.9 hPa Calm   1.6 km/h 74% 0.0 mm 0.00 W/m2
23:29 16.9 °C 12.2 °C 1022.9 hPa ENE 6.4 km/h 6.4 km/h 74% 0.0 mm 0.00 W/m2
23:34 16.9 °C 12.0 °C 1022.9 hPa Calm   1.6 km/h 73% 0.0 mm 0.00 W/m2
23:39 16.7 °C 12.0 °C 1022.9 hPa Calm   3.2 km/h 74% 0.0 mm 0.00 W/m2
23:44 16.6 °C 11.9 °C 1022.9 hPa ENE 1.4 km/h 8.0 km/h 74% 0.0 mm 0.00 W/m2
23:49 16.5 °C 11.8 °C 1022.9 hPa Calm   3.2 km/h 74% 0.0 mm 0.00 W/m2
23:54 16.4 °C 11.8 °C 1022.9 hPa Calm   1.6 km/h 74% 0.0 mm 0.00 W/m2
23:59 16.3 °C 11.7 °C 1022.9 hPa ENE 1.4 km/h 3.2 km/h 74% 0.0 mm 0.00 W/m2